Погода в Волыне

Чехия     49°09′57″N   13°53′07″E
темп.,
°C
ветер,
м/с
пор.,
м/с
влажн.,
%
обл.,
%
осадки,
мм/ч
давл.,
гПа
погр.,
м
20 апреля, вт
вт2023:00+6зсз2295100 0.2 101872
02:00+4з229589 0.2 101722
05:00+5з239599 0.7 1017121
08:00+6зсз249291 0.9 1017180
11:00+10зсз227524 0.4 1016756
14:00+13сз125833 1.6 10141355
17:00+13ссв225731 1.3 10131164
20:00+8з327833 1.8 101437
21 апреля, ср
ср2123:00+5зюз228714 0.0 101615
02:00+5зюз11885 0.0 101612
05:00+4юз11890 0.0 101611
08:00+7юз11804 0.0 1016123
11:00+12сз45667 0.3 10151087
14:00+14зсз566288 2.9 10131543
17:00+14зсз456196 2.0 10121327
20:00+9з2283100 3.4 101415
22 апреля, чт
чт2223:00+7зсз2387100 0.4 101555
02:00+7ссз019294 2.1 101651
05:00+5с119092 0.1 101715
08:00+5с3496100 0.1 1018811
11:00+3зсз2498100 2.8 1021350
14:00+8зсз5749100 2.9 10191516
17:00+9сз6947100 0.0 10192065
20:00+6сз485999 0.0 1020197
23 апреля, пт
пт2323:00+5зсз2466100 0.0 1023158
02:00+1зсз378366 0.1 1024167
05:00−1з39925 0.0 1025190
08:00+2зсз69715 0.0 1026745
11:00+7зсз695311 0.0 10251438
14:00+10сз694521 0.0 10241963
17:00+10ссз794911 0.0 10242141
20:00+5с226937 0.0 102623
24 апреля, сб
сб2423:00+2зюз22805 0.0 102812
02:00+1зюз22835 0.0 102813
05:000з21875 0.0 102711
08:00+4зсз12735 0.0 1027218
11:00+9сз345663 0.0 10251146
14:00+11сз4549100 0.0 10231427
17:00+11сз5648100 0.0 10221598
20:00+7с4865100 0.0 1023205